When you browse on this site, cookies collect data to enhance your experience and personalize the content and advertising you see.
Visit our Privacy Policy to learn more. By continuing to use the site, you agree to this use of cookies and data.

Hourly Weather Fort Smith

Today, 8 July, Wednesday

Time Temperature Precipitation Wind Pressure Humidity
00:00 +22°C° 0 mm 0 mps 747 mmHg 95%
01:00 +22°C° 0 mm 0 mps 747 mmHg 95%
02:00 +21°C° 0 mm 0 mps 746 mmHg 96%
03:00 +21°C° 0 mm 0 mps 746 mmHg 96%
04:00 +21°C° 0 mm 0 mps 746 mmHg 96%
05:00 +21°C° 0 mm 0 mps 746 mmHg 97%
06:00 +21°C° 0 mm 0 mps 746 mmHg 97%
07:00 +24°C° 0 mm 0 mps 747 mmHg 89%
08:00 +26°C° 0 mm 0 mps 747 mmHg 82%
09:00 +28°C° 0 mm 0 mps 747 mmHg 74%
10:00 +29°C° 0 mm 0 mps 747 mmHg 68%
11:00 +31°C° 0 mm 0 mps 746 mmHg 63%
12:00 +34°C° 0 mm 1 mps 746 mmHg 57%
13:00 +34°C° 0 mm 1 mps 746 mmHg 54%
14:00 +35°C° 0 mm 1 mps 745 mmHg 52%
15:00 +36°C° 0 mm 1 mps 745 mmHg 49%
16:00 +35°C° 0 mm 1 mps 744 mmHg 53%
17:00 +34°C° 0 mm 1 mps 744 mmHg 58%
18:00 +33°C° 0 mm 1 mps 744 mmHg 62%
19:00 +31°C° 0 mm 1 mps 744 mmHg 67%
20:00 +29°C° 0 mm 1 mps 744 mmHg 73%
21:00 +27°C° 0 mm 1 mps 745 mmHg 79%
22:00 +27°C° 0 mm 1 mps 744 mmHg 82%
23:00 +26°C° 0 mm 1 mps 744 mmHg 85%

Tomorrow, 9 July, Thursday

Time Temperature Precipitation Wind Pressure Humidity
00:00 +26°C° 0 mm 1 mps 744 mmHg 88%
01:00 +25°C° 0 mm 1 mps 744 mmHg 90%
02:00 +25°C° 0 mm 1 mps 744 mmHg 92%
03:00 +24°C° 0 mm 1 mps 744 mmHg 94%
04:00 +25°C° 0 mm 1 mps 744 mmHg 93%
05:00 +25°C° 0 mm 1 mps 744 mmHg 93%
06:00 +25°C° 0 mm 1 mps 745 mmHg 93%
07:00 +27°C° 0 mm 1 mps 745 mmHg 85%
08:00 +29°C° 0 mm 1 mps 745 mmHg 77%
09:00 +32°C° 0 mm 1 mps 745 mmHg 70%
10:00 +33°C° 0.4 mm 1 mps 745 mmHg 64%
11:00 +36°C° 0.4 mm 2 mps 745 mmHg 58%
12:00 +37°C° 0.4 mm 2 mps 744 mmHg 52%
13:00 +38°C° 0 mm 2 mps 744 mmHg 49%
14:00 +39°C° 0 mm 2 mps 744 mmHg 46%
15:00 +39°C° 0 mm 2 mps 744 mmHg 44%
16:00 +39°C° 0 mm 2 mps 744 mmHg 49%
17:00 +38°C° 0 mm 2 mps 743 mmHg 53%
18:00 +36°C° 0 mm 1 mps 743 mmHg 58%
19:00 +34°C° 0.1 mm 1 mps 744 mmHg 64%
20:00 +32°C° 0.1 mm 1 mps 744 mmHg 70%
21:00 +30°C° 0.1 mm 1 mps 744 mmHg 76%
22:00 +28°C° 2.1 mm 4 mps 745 mmHg 81%
23:00 +27°C° 2.1 mm 7 mps 746 mmHg 85%

Day after tomorrow, 10 July, Friday

Time Temperature Precipitation Wind Pressure Humidity
00:00 +24°C° 2.1 mm 9 mps 746 mmHg 89%
01:00 +23°C° 5.1 mm 7 mps 747 mmHg 91%
02:00 +22°C° 5.1 mm 4 mps 747 mmHg 93%
03:00 +22°C° 5.1 mm 1 mps 747 mmHg 95%
04:00 +22°C° 0.2 mm 1 mps 747 mmHg 93%
05:00 +23°C° 0.2 mm 2 mps 747 mmHg 92%
06:00 +23°C° 0.2 mm 2 mps 747 mmHg 91%
07:00 +25°C° 0 mm 1 mps 747 mmHg 82%
08:00 +28°C° 0 mm 1 mps 747 mmHg 72%
09:00 +29°C° 0 mm 0 mps 748 mmHg 63%
10:00 +30°C° 0 mm 0 mps 748 mmHg 59%
11:00 +34°C° 0 mm 1 mps 748 mmHg 55%
12:00 +36°C° 0 mm 1 mps 748 mmHg 52%
13:00 +36°C° 0 mm 1 mps 748 mmHg 51%
14:00 +37°C° 0 mm 1 mps 747 mmHg 50%
15:00 +36°C° 0 mm 0 mps 747 mmHg 49%
16:00 +35°C° 0 mm 0 mps 747 mmHg 53%
17:00 +34°C° 0 mm 0 mps 747 mmHg 57%
18:00 +33°C° 0 mm 0 mps 747 mmHg 61%
19:00 +32°C° 0 mm 0 mps 747 mmHg 65%
20:00 +30°C° 0 mm 0 mps 747 mmHg 69%
21:00 +28°C° 0 mm 0 mps 747 mmHg 73%
22:00 +27°C° 0 mm 0 mps 747 mmHg 76%
23:00 +26°C° 0 mm 0 mps 747 mmHg 80%

11 July, Saturday

Time Temperature Precipitation Wind Pressure Humidity
00:00 +26°C° 0 mm 0 mps 747 mmHg 83%
01:00 +25°C° 0 mm 0 mps 747 mmHg 85%
02:00 +27°C° 0 mm 1 mps 747 mmHg 87%
03:00 +26°C° 0 mm 1 mps 747 mmHg 89%
04:00 +26°C° 0 mm 1 mps 747 mmHg 90%
05:00 +26°C° 0 mm 1 mps 747 mmHg 90%
06:00 +26°C° 0 mm 1 mps 747 mmHg 91%
07:00 +29°C° 0 mm 1 mps 748 mmHg 83%
08:00 +31°C° 0 mm 1 mps 748 mmHg 76%
09:00 +34°C° 0 mm 2 mps 748 mmHg 68%
10:00 +36°C° 0 mm 2 mps 748 mmHg 61%
11:00 +37°C° 0 mm 2 mps 747 mmHg 53%
12:00 +39°C° 0 mm 2 mps 747 mmHg 46%
13:00 +40°C° 0 mm 2 mps 746 mmHg 43%
14:00 +42°C° 0 mm 3 mps 745 mmHg 41%
15:00 +42°C° 0 mm 3 mps 744 mmHg 38%
16:00 +40°C° 0 mm 3 mps 744 mmHg 44%
17:00 +39°C° 0 mm 2 mps 744 mmHg 49%
18:00 +38°C° 0 mm 2 mps 744 mmHg 55%
19:00 +35°C° 0 mm 2 mps 745 mmHg 61%
20:00 +31°C° 0 mm 3 mps 745 mmHg 67%
21:00 +27°C° 0 mm 3 mps 745 mmHg 74%
22:00 +26°C° 0 mm 3 mps 745 mmHg 78%
23:00 +25°C° 0 mm 2 mps 745 mmHg 82%

12 July, Sunday

Time Temperature Precipitation Wind Pressure Humidity
00:00 +24°C° 0 mm 1 mps 744 mmHg 86%
01:00 +24°C° 0 mm 1 mps 744 mmHg 87%
02:00 +24°C° 0 mm 1 mps 744 mmHg 89%
03:00 +24°C° 0 mm 1 mps 744 mmHg 90%
04:00 +25°C° 0 mm 1 mps 744 mmHg 91%
05:00 +25°C° 0 mm 1 mps 744 mmHg 91%
06:00 +25°C° 0 mm 1 mps 744 mmHg 91%
07:00 +27°C° 0 mm 1 mps 744 mmHg 84%
08:00 +29°C° 0 mm 1 mps 744 mmHg 76%
09:00 +32°C° 0 mm 1 mps 744 mmHg 68%
10:00 +33°C° 0 mm 1 mps 744 mmHg 63%
11:00 +35°C° 0 mm 1 mps 744 mmHg 57%
12:00 +37°C° 0 mm 2 mps 744 mmHg 52%
13:00 +38°C° 0 mm 2 mps 744 mmHg 48%
14:00 +39°C° 0 mm 2 mps 743 mmHg 45%
15:00 +40°C° 0 mm 2 mps 743 mmHg 41%
16:00 +38°C° 0 mm 3 mps 743 mmHg 48%
17:00 +37°C° 0 mm 3 mps 742 mmHg 55%
18:00 +35°C° 0 mm 4 mps 742 mmHg 62%
19:00 +32°C° 0.7 mm 4 mps 743 mmHg 68%
20:00 +29°C° 0.7 mm 4 mps 743 mmHg 75%
21:00 +26°C° 0.7 mm 4 mps 743 mmHg 82%
22:00 +25°C° 0.2 mm 4 mps 743 mmHg 82%
23:00 +25°C° 0.2 mm 3 mps 744 mmHg 83%

13 July, Monday

Time Temperature Precipitation Wind Pressure Humidity
00:00 +24°C° 0.2 mm 3 mps 744 mmHg 83%
01:00 +24°C° 0 mm 3 mps 744 mmHg 83%
02:00 +24°C° 0 mm 3 mps 743 mmHg 83%
03:00 +24°C° 0 mm 3 mps 743 mmHg 83%
04:00 +24°C° 0 mm 3 mps 743 mmHg 84%
05:00 +24°C° 0 mm 3 mps 743 mmHg 85%
06:00 +24°C° 0 mm 2 mps 744 mmHg 86%
07:00 +26°C° 0 mm 3 mps 744 mmHg 80%
08:00 +28°C° 0 mm 3 mps 744 mmHg 75%
09:00 +30°C° 0 mm 3 mps 744 mmHg 70%
10:00 +33°C° 0 mm 3 mps 744 mmHg 64%
11:00 +35°C° 0 mm 2 mps 744 mmHg 58%
12:00 +36°C° 0 mm 2 mps 744 mmHg 52%
13:00 +37°C° 0 mm 2 mps 744 mmHg 51%
14:00 +38°C° 0 mm 2 mps 744 mmHg 50%
15:00 +38°C° 0 mm 2 mps 743 mmHg 48%
16:00 +37°C° 0 mm 2 mps 743 mmHg 54%
17:00 +36°C° 0 mm 2 mps 743 mmHg 59%
18:00 +35°C° 0 mm 3 mps 743 mmHg 64%
19:00 +34°C° 0 mm 2 mps 743 mmHg 70%
20:00 +31°C° 0 mm 2 mps 743 mmHg 76%
21:00 +29°C° 0 mm 2 mps 744 mmHg 82%
22:00 +29°C° 0 mm 2 mps 744 mmHg 84%
23:00 +28°C° 0 mm 2 mps 744 mmHg 87%
Show more